QPF
0.00 0.00 0.00 0.00 0.00 0.00 0.00 0.00 0.00 0.00 0.00 0.00 0.00 0.01 0.00 0.00 0.01 0.04 0.06 0.04 0.04 0.03 0.03 0.01 0.00 0.01 0.00 0.00 0.00 0.00 0.00 0.00 0.00 0.00 0.00 0.00 0.00 0.00 0.03 0.00 0.00 0.00 0.00
0.00 0.00 0.00 0.00 0.00 0.00 0.00 0.00 0.00 0.00 0.00 0.00 0.00 0.00 0.00 0.01 0.02 0.02 0.04 0.03 0.03 0.03 0.01 0.00 0.00 0.00 0.00 0.00 0.01 0.00 0.00 0.00 0.00 0.00 0.00 0.00 0.00 0.01 0.02 0.02 0.01 0.00 0.00
0.00 0.00 0.00 0.00 0.00 0.00 0.00 0.00 0.00 0.00 0.00 0.00 0.00 0.00 0.00 0.02 0.00 0.00 0.00 0.02 0.00 0.00 0.00 0.00 0.00 0.00 0.00 0.00 0.01 0.00 0.00 0.00 0.00 0.00 0.00 0.00 0.00 0.01 0.01 0.00 0.01 0.01 0.00
0.00 0.00 0.00 0.00 0.00 0.00 0.00 0.00 0.00 0.00 0.00 0.00 0.00 0.00 0.00 0.00 0.00 0.04 0.03 0.00 0.00 0.00 0.01 0.00 0.00 0.00 0.00 0.00 0.00 0.00 0.00 0.00 0.00 0.00 0.00 0.00 0.00 0.00 0.00 0.00 0.00 0.00 0.00
0.00 0.00 0.00 0.00 0.00 0.00 0.00 0.00 0.00 0.00 0.00 0.00 0.00 0.00 0.00 0.00 0.00 0.01 0.01 0.00 0.00 0.00 0.00 0.00 0.00 0.00 0.00 0.00 0.00 0.00 0.00 0.00 0.00 0.00 0.00 0.00 0.00 0.00 0.00 0.00 0.00 0.00 0.00
0.00 0.00 0.00 0.00 0.00 0.00 0.00 0.00 0.00 0.00 0.00 0.00 0.00 0.00 0.00 0.00 0.00 0.00 0.00 0.00 0.00 0.00 0.00 0.00 0.00 0.00 0.00 0.00 0.00 0.01 0.01 0.00 0.00 0.00 0.00 0.00 0.02 0.01 0.01 0.00 0.00 0.00 0.01
0.00 0.00 0.00 0.00 0.00 0.00 0.00 0.00 0.00 0.00 0.00 0.00 0.00 0.00 0.00 0.00 0.00 0.00 0.00 0.00 0.00 0.00 0.00 0.00 0.00 0.00 0.00 0.00 0.00 0.00 0.00 0.00 0.00 0.01 0.00 0.00 0.00 0.01 0.00 0.00 0.00 0.00 0.01
0.01 0.00 0.00 0.00 0.00 0.00 0.00 0.00 0.00 0.00 0.00 0.00 0.00 0.00 0.00 0.00 0.00 0.00 0.00 0.00 0.00 0.00 0.00 0.00 0.00 0.00 0.00 0.00 0.00 0.00 0.00 0.00 0.00 0.01 0.00 0.01 0.01 0.00 0.00 0.00 0.00 0.00 0.00
0.02 0.00 0.00 0.00 0.00 0.00 0.00 0.00 0.00 0.00 0.00 0.00 0.00 0.00 0.00 0.00 0.00 0.00 0.04 0.05 0.00 0.00 0.00 0.00 0.00 0.00 0.00 0.00 0.00 0.00 0.00 0.00 0.00 0.00 0.00 0.00 0.00 0.00 0.00 0.00 0.00 0.01 0.04
0.00 0.00 0.00 0.00 0.00 0.00 0.00 0.00 0.00 0.00 0.00 0.00 0.00 0.00 0.00 0.00 0.00 0.00 0.02 0.09 0.05 0.00 0.00 0.00 0.00 0.00 0.00 0.00 0.00 0.00 0.00 0.00 0.00 0.00 0.00 0.01 0.00 0.00 0.00 0.00 0.00 0.00 0.00
0.01 0.00 0.00 0.00 0.00 0.00 0.00 0.00 0.00 0.00 0.00 0.00 0.00 0.00 0.00 0.00 0.00 0.00 0.00 0.00 0.01 0.00 0.00 0.00 0.00 0.00 0.00 0.00 0.00 0.00 0.00 0.00 0.00 0.00 0.00 0.00 0.00 0.00 0.00 0.00 0.00 0.00 0.00
0.00 0.00 0.00 0.00 0.00 0.00 0.02 0.02 0.02 0.01 0.06 0.09 0.14 0.16 0.11 0.08 0.02 0.00 0.00 0.00 0.00 0.00 0.00 0.00 0.00 0.00 0.00 0.01 0.00 0.00 0.00 0.00 0.00 0.00 0.01 0.00 0.00 0.00 0.00 0.01 0.00 0.00 0.00
0.00 0.00 0.00 0.00 0.03 0.05 0.08 0.05 0.04 0.10 0.17 0.11 0.13 0.13 0.10 0.11 0.18 0.14 0.05 0.01 0.00 0.00 0.00 0.00 0.00 0.00 0.00 0.02 0.11 0.04 0.00 0.00 0.00 0.00 0.00 0.01 0.00 0.01 0.02 0.01 0.00 0.00 0.00
0.00 0.00 0.00 0.02 0.08 0.11 0.10 0.03 0.05 0.05 0.07 0.06 0.01 0.07 0.06 0.03 0.05 0.16 0.14 0.13 0.13 0.13 0.01 0.07 0.04 0.00 0.00 0.01 0.07 0.04 0.03 0.00 0.01 0.00 0.00 0.00 0.02 0.05 0.04 0.03 0.03 0.02 0.03
0.00 0.00 0.00 0.00 0.02 0.04 0.04 0.01 0.00 0.01 0.04 0.06 0.05 0.09 0.06 0.06 0.05 0.12 0.17 0.13 0.12 0.08 0.01 0.00 0.07 0.11 0.02 0.01 0.03 0.00 0.00 0.00 0.04 0.00 0.00 0.01 0.03 0.01 0.01 0.03 0.05 0.04 0.09
0.00 0.00 0.00 0.00 0.00 0.01 0.00 0.00 0.00 0.02 0.03 0.08 0.16 0.16 0.19 0.09 0.03 0.07 0.04 0.04 0.03 0.01 0.00 0.00 0.05 0.08 0.07 0.02 0.00 0.00 0.00 0.01 0.02 0.02 0.01 0.04 0.01 0.01 0.02 0.00 0.00 0.02 0.08
0.04 0.02 0.00 0.00 0.00 0.01 0.06 0.02 0.01 0.02 0.03 0.10 0.08 0.03 0.16 0.07 0.02 0.01 0.01 0.03 0.01 0.00 0.00 0.00 0.00 0.00 0.00 0.00 0.00 0.00 0.00 0.02 0.06 0.03 0.00 0.01 0.00 0.00 0.00 0.00 0.00 0.05 0.09
0.13 0.10 0.05 0.02 0.03 0.07 0.01 0.02 0.02 0.05 0.13 0.27 0.23 0.07 0.07 0.02 0.00 0.00 0.00 0.00 0.00 0.00 0.00 0.00 0.00 0.00 0.00 0.00 0.00 0.00 0.00 0.01 0.07 0.08 0.06 0.02 0.00 0.00 0.00 0.00 0.00 0.00 0.03
0.09 0.09 0.12 0.08 0.10 0.26 0.12 0.05 0.09 0.15 0.14 0.11 0.06 0.08 0.02 0.00 0.00 0.00 0.00 0.01 0.00 0.00 0.00 0.00 0.00 0.00 0.00 0.00 0.00 0.00 0.00 0.03 0.05 0.05 0.04 0.01 0.00 0.00 0.00 0.00 0.00 0.00 0.00
0.01 0.05 0.06 0.09 0.07 0.15 0.20 0.23 0.19 0.25 0.21 0.16 0.06 0.04 0.02 0.03 0.02 0.06 0.08 0.05 0.01 0.00 0.00 0.00 0.00 0.00 0.00 0.00 0.00 0.00 0.00 0.00 0.00 0.01 0.01 0.01 0.00 0.00 0.00 0.00 0.00 0.00 0.00
0.00 0.00 0.00 0.03 0.06 0.12 0.09 0.08 0.16 0.25 0.25 0.31 0.26 0.18 0.13 0.08 0.05 0.08 0.09 0.08 0.03 0.00 0.00 0.00 0.00 0.00 0.00 0.00 0.00 0.00 0.00 0.00 0.00 0.00 0.00 0.00 0.00 0.00 0.00 0.00 0.00 0.00 0.00
0.00 0.00 0.00 0.00 0.00 0.02 0.05 0.03 0.09 0.11 0.17 0.24 0.28 0.21 0.13 0.07 0.02 0.01 0.02 0.01 0.01 0.00 0.00 0.00 0.00 0.00 0.00 0.00 0.00 0.00 0.00 0.00 0.00 0.00 0.00 0.00 0.00 0.00 0.00 0.00 0.00 0.00 0.00
0.00 0.00 0.00 0.00 0.00 0.00 0.00 0.00 0.01 0.02 0.05 0.08 0.05 0.04 0.01 0.00 0.00 0.00 0.00 0.00 0.00 0.00 0.00 0.00 0.00 0.00 0.00 0.00 0.00 0.00 0.00 0.00 0.00 0.00 0.00 0.00 0.00 0.00 0.00 0.00 0.00 0.00 0.00
0.00 0.00 0.00 0.00 0.00 0.00 0.00 0.00 0.00 0.00 0.00 0.00 0.00 0.00 0.00 0.00 0.00 0.00 0.00 0.00 0.00 0.00 0.00 0.00 0.00 0.00 0.00 0.00 0.00 0.00 0.00 0.00 0.00 0.00 0.00 0.00 0.00 0.00 0.00 0.00 0.00 0.00 0.00
0.00 0.00 0.00 0.00 0.00 0.00 0.00 0.00 0.00 0.00 0.00 0.00 0.00 0.00 0.00 0.00 0.00 0.00 0.00 0.00 0.00 0.00 0.00 0.00 0.00 0.00 0.00 0.00 0.00 0.00 0.00 0.00 0.00 0.00 0.00 0.00 0.00 0.00 0.00 0.00 0.00 0.00 0.00
0.00 0.00 0.00 0.00 0.00 0.00 0.00 0.00 0.00 0.00 0.00 0.00 0.00 0.00 0.00 0.00 0.00 0.00 0.00 0.00 0.00 0.00 0.00 0.00 0.00 0.00 0.00 0.00 0.00 0.00 0.00 0.00 0.00 0.00 0.00 0.00 0.00 0.00 0.00 0.00 0.00 0.00 0.00
MSLP
1014.07 1014.64 1015.13 1015.65 1016.15 1016.82 1017.12 1017.43 1017.71 1017.96 1018.28 1018.67 1018.88 1019.22 1019.53 1019.61 1019.72 1019.42 1019.49 1019.34 1019.49 1019.62 1020.03 1020.10 1020.33 1020.53 1020.71 1020.17 1019.98 1019.96 1020.07 1019.95 1019.81 1020.08 1020.22 1020.09 1019.73 1019.74 1019.93 1019.66 1019.46 1019.45 1019.70
1014.42 1014.82 1015.23 1015.82 1016.14 1016.54 1016.88 1017.35 1017.46 1017.90 1018.19 1018.44 1018.74 1019.00 1019.27 1019.62 1019.72 1019.51 1019.41 1019.55 1019.42 1019.53 1019.66 1020.06 1020.38 1020.31 1020.36 1020.19 1019.98 1020.18 1020.25 1020.32 1020.13 1020.40 1020.75 1021.02 1020.61 1020.46 1020.30 1020.00 1019.76 1019.54 1019.30
1013.94 1014.79 1015.11 1015.55 1015.97 1016.30 1016.53 1017.11 1017.40 1017.72 1018.07 1018.43 1018.79 1019.14 1019.28 1019.61 1019.88 1019.75 1019.75 1019.60 1019.41 1019.38 1019.64 1019.78 1019.98 1019.96 1020.21 1020.32 1020.41 1020.45 1020.43 1020.69 1020.47 1020.24 1020.52 1021.34 1021.40 1021.26 1020.95 1020.51 1020.28 1019.94 1019.75
1013.60 1014.16 1014.84 1015.27 1015.66 1016.01 1016.44 1016.98 1017.39 1017.66 1017.92 1018.32 1018.64 1019.10 1019.46 1019.83 1019.98 1020.03 1019.93 1019.77 1019.71 1019.59 1019.48 1019.77 1019.71 1019.97 1020.34 1020.47 1020.45 1020.32 1020.31 1020.55 1020.83 1020.67 1020.65 1020.73 1021.04 1021.30 1021.68 1021.13 1020.81 1020.41 1020.13
1012.99 1013.55 1014.19 1014.59 1015.22 1015.83 1016.24 1016.81 1017.41 1017.71 1017.84 1018.05 1018.31 1018.90 1019.40 1019.60 1019.70 1019.91 1019.94 1019.85 1019.74 1019.65 1019.57 1019.86 1020.13 1020.35 1020.35 1020.30 1020.41 1020.40 1020.37 1020.55 1020.72 1021.07 1021.25 1021.03 1021.13 1021.22 1021.53 1021.75 1021.39 1020.94 1020.50
1013.16 1013.18 1013.83 1014.58 1015.16 1015.79 1016.27 1016.67 1017.26 1017.58 1017.81 1017.97 1018.29 1018.76 1019.22 1019.60 1019.91 1019.93 1019.98 1019.83 1019.85 1019.72 1019.59 1019.68 1019.94 1020.15 1020.16 1020.24 1020.23 1020.21 1020.46 1020.62 1020.86 1020.98 1021.27 1021.21 1021.28 1021.51 1021.61 1021.76 1021.75 1021.64 1020.86
1012.89 1013.36 1013.83 1014.57 1015.14 1015.65 1016.17 1016.51 1016.99 1017.44 1017.76 1017.88 1017.99 1018.29 1018.73 1019.19 1019.57 1019.67 1019.79 1019.89 1019.81 1019.82 1019.73 1019.58 1019.89 1020.08 1020.17 1020.27 1020.13 1020.30 1020.46 1020.64 1020.87 1020.98 1021.09 1021.16 1021.09 1021.10 1021.40 1021.53 1021.81 1021.87 1021.12
1012.62 1012.99 1013.25 1014.02 1014.49 1015.11 1015.89 1016.36 1016.78 1017.18 1017.51 1017.86 1018.06 1018.11 1018.38 1018.77 1019.05 1019.38 1019.52 1019.55 1019.66 1019.62 1019.64 1019.60 1019.77 1019.97 1020.10 1020.25 1020.09 1020.35 1020.37 1020.42 1020.78 1020.95 1020.98 1021.12 1021.01 1020.96 1021.01 1021.34 1021.82 1021.99 1021.70
1012.72 1012.62 1013.15 1013.64 1014.15 1014.92 1015.46 1015.98 1016.43 1016.95 1017.23 1017.45 1017.74 1018.05 1018.40 1018.65 1018.84 1019.16 1019.40 1019.47 1019.33 1019.32 1019.36 1019.50 1019.71 1019.83 1019.90 1019.96 1020.13 1020.35 1020.34 1020.28 1020.52 1020.70 1020.77 1020.87 1020.80 1020.89 1020.89 1020.97 1021.25 1021.54 1022.13
1012.24 1012.54 1013.00 1013.46 1013.86 1014.26 1015.02 1015.66 1016.08 1016.46 1016.86 1017.36 1017.76 1017.95 1018.23 1018.56 1018.74 1018.96 1019.04 1019.40 1019.33 1019.24 1019.41 1019.56 1019.63 1019.62 1019.77 1019.83 1019.91 1020.17 1020.27 1020.28 1020.36 1020.40 1020.67 1020.91 1020.85 1020.76 1020.75 1020.78 1020.98 1021.14 1021.44
1010.96 1012.15 1013.00 1013.27 1013.57 1013.92 1014.75 1015.19 1015.80 1016.20 1016.67 1017.19 1017.56 1017.99 1018.28 1018.55 1018.74 1018.88 1018.82 1019.03 1019.22 1019.28 1019.46 1019.70 1019.72 1019.67 1019.72 1019.62 1019.82 1019.94 1020.12 1020.17 1020.24 1020.23 1020.37 1020.53 1020.69 1020.75 1020.71 1020.67 1020.72 1020.84 1020.98
1011.01 1011.28 1012.68 1013.48 1013.63 1013.89 1014.57 1015.02 1015.60 1016.10 1016.41 1016.70 1017.28 1017.82 1018.33 1018.69 1018.87 1018.94 1018.89 1018.87 1019.07 1019.18 1019.38 1019.42 1019.66 1019.82 1019.69 1019.68 1019.70 1019.75 1019.88 1020.03 1020.05 1020.10 1020.27 1020.29 1020.26 1020.40 1020.54 1020.59 1020.70 1020.67 1020.62
1011.23 1011.93 1012.74 1013.66 1013.68 1014.09 1014.55 1014.90 1015.49 1016.14 1016.55 1016.66 1017.03 1017.71 1018.14 1018.48 1019.07 1019.29 1018.90 1018.83 1018.89 1019.06 1019.15 1019.29 1019.39 1019.60 1019.76 1019.84 1019.83 1019.70 1019.80 1019.75 1019.77 1019.88 1019.99 1020.00 1020.08 1020.16 1020.24 1020.47 1020.65 1020.57 1020.50
1011.11 1011.56 1013.09 1013.47 1013.77 1014.26 1014.55 1014.98 1015.21 1015.66 1016.29 1016.56 1016.60 1017.24 1017.81 1018.52 1019.01 1019.18 1019.00 1018.99 1019.03 1019.08 1018.96 1019.09 1019.27 1019.46 1019.73 1019.92 1019.90 1019.77 1019.62 1019.58 1019.65 1019.58 1019.70 1019.77 1019.71 1019.91 1020.02 1020.11 1020.19 1020.19 1020.35
1010.79 1011.65 1012.43 1012.85 1013.57 1014.12 1014.52 1014.83 1015.24 1014.82 1015.52 1016.13 1016.41 1016.95 1017.76 1018.11 1018.68 1019.00 1018.81 1018.96 1019.00 1019.10 1019.08 1019.26 1019.57 1019.73 1019.78 1020.01 1020.13 1019.91 1019.82 1019.71 1019.59 1019.54 1019.44 1019.74 1019.51 1019.57 1019.75 1020.05 1019.99 1020.08 1020.25
1010.83 1011.07 1011.29 1012.19 1013.12 1013.75 1014.18 1014.44 1014.97 1014.89 1015.47 1015.92 1016.57 1017.07 1017.55 1017.64 1018.28 1018.67 1018.76 1018.84 1019.02 1019.00 1019.30 1019.52 1019.74 1019.98 1020.02 1019.96 1020.06 1019.97 1019.92 1019.67 1019.43 1019.44 1019.57 1019.76 1019.87 1019.76 1019.78 1019.87 1019.97 1020.01 1020.13
1012.12 1012.40 1012.78 1012.65 1013.01 1013.42 1014.00 1014.46 1014.76 1015.14 1015.77 1016.26 1016.46 1016.86 1017.48 1018.08 1018.11 1018.20 1018.37 1018.42 1018.76 1018.97 1019.51 1019.75 1019.88 1020.22 1020.22 1020.12 1020.00 1019.88 1019.90 1019.78 1019.45 1019.24 1019.57 1019.94 1020.14 1020.17 1020.14 1020.38 1020.36 1020.15 1020.19
1013.35 1013.68 1013.93 1013.96 1013.97 1014.18 1014.02 1014.43 1014.97 1015.63 1016.00 1016.46 1016.79 1016.95 1017.38 1017.54 1017.84 1018.17 1018.46 1018.59 1018.73 1019.12 1019.72 1020.26 1020.38 1020.43 1020.48 1020.05 1019.95 1019.91 1019.89 1019.64 1020.10 1019.98 1020.08 1020.28 1020.09 1020.29 1020.44 1020.40 1020.43 1020.38 1020.27
1014.20 1014.47 1014.60 1014.71 1014.54 1014.62 1014.86 1014.61 1015.07 1015.58 1015.76 1016.23 1016.17 1016.79 1016.99 1017.30 1017.80 1018.34 1018.68 1018.75 1019.14 1019.57 1019.90 1020.35 1020.54 1020.51 1020.48 1020.49 1020.35 1020.21 1020.36 1020.61 1020.79 1020.83 1020.76 1020.71 1020.69 1020.83 1020.85 1020.72 1020.80 1020.69 1020.42
1015.01 1015.11 1015.38 1015.31 1015.25 1015.36 1015.09 1015.26 1015.48 1015.63 1015.68 1015.53 1016.10 1016.36 1016.82 1017.31 1017.79 1018.18 1018.53 1018.85 1019.37 1019.82 1020.63 1020.88 1020.89 1020.96 1020.87 1020.67 1020.64 1020.59 1020.78 1020.88 1020.83 1020.94 1020.96 1021.10 1021.35 1021.17 1020.94 1021.01 1021.07 1021.11 1021.13
1015.70 1015.70 1015.76 1016.08 1016.15 1016.01 1015.92 1016.24 1016.48 1016.71 1016.78 1016.84 1016.81 1016.90 1017.59 1018.01 1018.32 1018.51 1018.83 1019.25 1019.64 1020.05 1020.92 1021.25 1021.48 1021.48 1021.53 1021.56 1021.12 1020.90 1021.28 1021.51 1021.40 1021.32 1021.22 1021.27 1021.39 1021.33 1021.11 1021.03 1021.09 1021.32 1021.29
1016.25 1016.16 1016.21 1016.57 1016.73 1016.64 1016.71 1017.05 1017.40 1017.88 1017.77 1017.35 1017.67 1017.73 1018.31 1018.61 1018.81 1019.13 1019.35 1019.65 1019.97 1020.21 1020.77 1021.21 1021.66 1021.73 1021.88 1022.09 1022.17 1021.72 1021.45 1021.69 1021.80 1021.80 1021.77 1021.54 1021.43 1021.09 1021.06 1021.23 1021.36 1021.31 1021.49
1016.74 1016.37 1016.67 1017.05 1017.60 1017.71 1017.72 1017.97 1018.30 1018.26 1018.45 1018.61 1018.85 1019.08 1018.98 1019.31 1019.43 1019.55 1019.87 1019.85 1020.11 1020.50 1020.88 1021.18 1021.53 1021.92 1021.99 1022.27 1022.01 1022.27 1022.66 1021.97 1021.69 1022.16 1021.75 1021.78 1021.54 1021.30 1021.57 1021.65 1021.71 1021.90 1022.10
1017.11 1017.09 1016.95 1017.77 1018.14 1018.39 1018.53 1018.69 1018.94 1019.01 1019.16 1019.35 1019.62 1019.73 1020.08 1020.08 1020.08 1020.22 1020.27 1020.36 1020.66 1021.15 1021.12 1021.42 1021.63 1021.88 1022.14 1022.08 1022.36 1022.51 1022.69 1022.69 1022.12 1021.81 1021.83 1021.81 1021.97 1022.04 1022.11 1022.15 1022.51 1022.84 1022.95
1017.07 1017.31 1017.33 1018.05 1018.52 1018.84 1019.13 1019.33 1019.55 1019.67 1019.84 1020.04 1020.09 1020.31 1020.58 1020.83 1021.19 1021.55 1021.75 1021.51 1021.84 1021.93 1021.83 1021.82 1021.76 1021.87 1022.11 1022.01 1022.32 1022.78 1022.87 1022.97 1022.88 1022.90 1021.93 1022.28 1022.82 1022.75 1023.10 1023.04 1023.09 1023.60 1024.01
1017.63 1017.89 1017.88 1018.21 1018.60 1018.93 1019.16 1019.48 1019.64 1019.85 1020.24 1020.54 1020.77 1020.84 1021.14 1021.45 1021.65 1021.94 1022.21 1022.38 1022.46 1022.54 1022.57 1022.44 1022.29 1022.12 1022.28 1022.25 1022.32 1023.03 1022.95 1023.24 1023.24 1022.88 1022.97 1023.04 1023.25 1023.67 1023.99 1024.16 1024.20 1024.43 1024.37
Thickness
5771 5772 5772 5771 5769 5766 5763 5763 5762 5764 5764 5760 5759 5756 5755 5757 5757 5760 5761 5762 5761 5761 5760 5760 5759 5759 5759 5767 5771 5773 5771 5773 5777 5774 5772 5772 5779 5780 5776 5775 5777 5779 5778
5765 5768 5769 5767 5767 5767 5767 5765 5767 5765 5765 5764 5763 5760 5759 5758 5758 5760 5763 5762 5765 5765 5766 5764 5763 5765 5766 5768 5771 5771 5770 5771 5775 5769 5765 5756 5765 5770 5773 5777 5779 5781 5782
5766 5764 5767 5766 5767 5767 5769 5769 5769 5767 5767 5766 5763 5761 5761 5760 5758 5760 5761 5764 5766 5767 5766 5767 5766 5769 5769 5768 5769 5769 5769 5766 5773 5776 5770 5755 5753 5760 5769 5773 5775 5779 5781
5768 5768 5767 5766 5767 5769 5771 5771 5770 5769 5768 5768 5766 5762 5758 5755 5758 5758 5761 5762 5763 5765 5768 5768 5771 5770 5769 5768 5768 5770 5772 5771 5766 5772 5772 5772 5768 5759 5755 5768 5770 5775 5776
5771 5770 5769 5772 5772 5772 5773 5771 5770 5771 5771 5771 5770 5765 5762 5761 5761 5760 5761 5763 5764 5766 5767 5766 5765 5766 5767 5768 5769 5770 5771 5771 5768 5766 5764 5769 5766 5764 5758 5754 5760 5768 5772
5768 5771 5771 5771 5771 5772 5772 5771 5770 5771 5772 5772 5770 5767 5764 5763 5759 5759 5761 5763 5764 5766 5767 5767 5766 5766 5768 5770 5771 5771 5771 5770 5768 5767 5765 5765 5761 5759 5758 5755 5754 5756 5764
5765 5765 5764 5766 5768 5769 5771 5772 5771 5770 5772 5773 5773 5772 5769 5765 5762 5763 5762 5763 5764 5764 5766 5768 5767 5766 5767 5768 5771 5771 5769 5769 5768 5768 5765 5764 5763 5765 5761 5759 5754 5752 5759
5764 5766 5768 5767 5771 5771 5771 5773 5770 5769 5771 5771 5771 5773 5772 5768 5767 5765 5764 5765 5765 5766 5765 5767 5766 5765 5765 5766 5768 5768 5768 5769 5768 5768 5767 5764 5763 5764 5764 5760 5752 5749 5751
5756 5765 5766 5768 5769 5770 5771 5772 5772 5770 5771 5771 5771 5771 5769 5767 5766 5766 5765 5765 5767 5766 5766 5765 5765 5764 5764 5765 5764 5765 5767 5768 5768 5768 5768 5765 5765 5764 5764 5762 5760 5753 5740
5758 5760 5764 5765 5769 5773 5772 5771 5772 5771 5772 5769 5767 5768 5767 5766 5766 5765 5765 5763 5765 5766 5765 5764 5764 5764 5762 5763 5765 5764 5765 5766 5766 5767 5765 5764 5764 5764 5764 5763 5760 5757 5751
5763 5760 5760 5766 5768 5773 5770 5770 5769 5769 5768 5767 5766 5764 5763 5761 5762 5762 5764 5764 5765 5766 5765 5763 5764 5766 5765 5765 5765 5765 5765 5766 5766 5766 5763 5763 5764 5762 5761 5762 5760 5758 5754
5757 5764 5762 5761 5764 5768 5767 5766 5765 5767 5766 5767 5765 5762 5760 5758 5756 5757 5760 5762 5761 5762 5762 5764 5762 5762 5765 5765 5764 5763 5764 5763 5763 5763 5763 5763 5764 5761 5760 5759 5757 5757 5756
5750 5750 5751 5753 5761 5761 5761 5763 5762 5760 5760 5761 5760 5758 5756 5752 5746 5750 5757 5759 5760 5760 5762 5762 5763 5761 5760 5760 5761 5763 5763 5764 5763 5762 5761 5762 5762 5760 5758 5756 5754 5755 5756
5751 5754 5746 5750 5755 5756 5758 5758 5761 5760 5758 5758 5758 5755 5753 5747 5745 5747 5751 5753 5755 5756 5759 5760 5760 5759 5756 5755 5756 5760 5761 5761 5761 5762 5761 5760 5760 5759 5757 5756 5755 5754 5751
5756 5752 5750 5753 5750 5752 5753 5755 5756 5760 5758 5757 5755 5753 5749 5744 5743 5744 5747 5748 5750 5752 5754 5753 5752 5751 5752 5750 5750 5753 5755 5755 5756 5758 5759 5756 5758 5757 5756 5753 5753 5750 5749
5757 5758 5761 5757 5750 5749 5751 5752 5749 5752 5753 5752 5750 5747 5744 5742 5740 5740 5741 5743 5745 5747 5747 5746 5746 5744 5744 5745 5744 5746 5746 5749 5752 5752 5751 5750 5750 5750 5751 5751 5749 5748 5746
5743 5744 5745 5750 5750 5747 5747 5745 5747 5747 5743 5742 5744 5741 5736 5730 5736 5740 5739 5742 5741 5741 5737 5736 5737 5736 5737 5738 5740 5740 5741 5744 5747 5749 5745 5743 5740 5740 5741 5741 5740 5742 5741
5729 5729 5729 5732 5734 5738 5742 5741 5740 5736 5736 5733 5731 5730 5728 5730 5731 5734 5734 5734 5735 5733 5729 5726 5727 5728 5728 5731 5734 5736 5735 5738 5735 5735 5734 5731 5734 5732 5733 5734 5733 5733 5733
5718 5720 5722 5724 5729 5730 5729 5736 5734 5734 5732 5729 5731 5726 5729 5731 5730 5727 5727 5729 5726 5723 5722 5719 5718 5720 5722 5722 5725 5727 5724 5722 5721 5720 5720 5720 5720 5720 5722 5723 5721 5720 5721
5708 5709 5709 5714 5718 5718 5722 5723 5723 5725 5725 5727 5722 5726 5726 5725 5725 5726 5723 5722 5719 5716 5710 5709 5711 5712 5714 5716 5716 5717 5713 5713 5714 5714 5713 5711 5709 5710 5712 5711 5709 5707 5706
5698 5702 5703 5702 5705 5709 5712 5710 5710 5711 5713 5714 5714 5716 5712 5711 5713 5715 5714 5710 5708 5708 5702 5701 5700 5701 5701 5702 5707 5708 5703 5701 5702 5703 5705 5704 5702 5702 5702 5701 5701 5698 5697
5689 5694 5695 5695 5697 5701 5702 5700 5697 5696 5700 5705 5703 5703 5700 5703 5704 5704 5704 5703 5701 5702 5697 5694 5691 5692 5691 5689 5688 5694 5697 5692 5690 5691 5691 5693 5693 5695 5693 5691 5689 5688 5686
5678 5686 5685 5684 5683 5685 5689 5689 5688 5691 5691 5691 5689 5689 5693 5691 5693 5693 5692 5694 5692 5692 5690 5688 5684 5680 5680 5678 5681 5678 5674 5681 5684 5677 5681 5682 5682 5684 5680 5678 5676 5673 5671
5664 5671 5677 5672 5671 5671 5673 5673 5672 5674 5674 5675 5676 5676 5675 5676 5678 5679 5680 5680 5679 5675 5679 5677 5675 5672 5669 5670 5666 5666 5663 5662 5668 5671 5669 5669 5668 5666 5665 5664 5660 5657 5656
5659 5660 5665 5662 5663 5659 5658 5658 5658 5659 5659 5658 5658 5658 5658 5657 5655 5652 5654 5658 5655 5657 5660 5660 5661 5660 5659 5659 5655 5652 5652 5651 5651 5650 5658 5654 5648 5648 5645 5645 5644 5640 5636
5652 5651 5656 5657 5655 5652 5652 5649 5648 5648 5646 5644 5643 5643 5641 5638 5637 5635 5635 5635 5636 5637 5638 5639 5641 5642 5642 5644 5643 5637 5638 5635 5635 5638 5635 5633 5632 5628 5625 5623 5622 5620 5622